Simultaneous Nadir Overpasses (SNOs) Predictions

Prediction of SNOs between METOP-A and TERRA Satellite Orbit:

Table of predicted SNOs for the next 14.0 days since TLE Epoch: 7/9/2012
Index Date (METOP-A) Time (METOP-A) METOP-A Lat,Lon Date (TERRA) Time (TERRA) TERRA Lat,Lon Distance(km) Time Diff (sec)
1 07/10/2012 08:06:09 -81.31, -74.58 07/10/2012 08:07:09 -81.31, -74.52 1.16 60
2 07/10/2012 08:56:48 81.31, 93.27 07/10/2012 08:56:35 81.32, 93.28 0.90 13
3 07/13/2012 03:40:29 -81.31, -8.22 07/13/2012 03:41:24 -81.30, -8.37 2.70 55
4 07/13/2012 04:31:09 81.31, 159.21 07/13/2012 04:30:50 81.30, 159.40 3.18 19
5 07/15/2012 23:14:49 -81.31, 58.51 07/15/2012 23:15:38 -81.31, 58.41 1.82 49
6 07/16/2012 00:05:28 81.32,-133.67 07/16/2012 00:05:04 81.32,-133.85 2.98 24
7 07/18/2012 18:49:10 -81.31, 124.84 07/18/2012 18:49:53 -81.31, 124.68 2.62 43
8 07/18/2012 19:39:50 81.31, -67.75 07/18/2012 19:39:19 81.31, -67.60 2.43 31
9 07/21/2012 14:23:30 -81.31,-168.85 07/21/2012 14:24:06 -81.31,-168.79 1.07 36




NCC Satellite Simultaneous Nadir Overpasses (SNOs) Prediction Service
